Wed, 01 Dec 2021 15:21:33 UTC

Information for RPM xxhash-libs-0.8.0-1.fc32.s390x.rpm

ID22313970
Namexxhash-libs
Version0.8.0
Release1.fc32
Epoch
Archs390x
SummaryExtremely fast hash algorithm - library
DescriptionxxHash is an Extremely fast Hash algorithm, running at RAM speed limits. It successfully completes the SMHasher test suite which evaluates collision, dispersion and randomness qualities of hash functions. Code is highly portable, and hashes are identical on all platforms (little / big endian).
Build Time2020-07-28 07:11:01 GMT
Size33,822
a69a2b7279673f9a42c1d9f4c52f721e
LicenseBSD
Buildrootf32-build-21805252-1782740
Provides
libxxhash.so.0()(64bit)
xxhash-libs = 0.8.0-1.fc32
xxhash-libs(s390-64) = 0.8.0-1.fc32
Obsoletes No Obsoletes
Conflicts No Conflicts
Requires
libc.so.6()(64bit)
libc.so.6(GLIBC_2.2)(64bit)
libc.so.6(GLIBC_2.3.4)(64bit)
libc.so.6(GLIBC_2.4)(64bit)
rpmlib(CompressedFileNames) <= 3.0.4-1
rpmlib(FileDigests) <= 4.6.0-1
rpmlib(PayloadFilesHavePrefix) <= 4.0-1
rpmlib(PayloadIsZstd) <= 5.4.18-1
rtld(GNU_HASH)
Recommends No Recommends
Suggests No Suggests
Supplements No Supplements
Enhances No Enhances
Files
1 through 9 of 9
Name ascending sort Size
/usr/lib/.build-id0
/usr/lib/.build-id/3d0
/usr/lib/.build-id/3d/5b540f1e6eb74b0432318460f8ca26234d156340
/usr/lib64/libxxhash.so.018
/usr/lib64/libxxhash.so.0.8.044,568
/usr/share/doc/xxhash-libs0
/usr/share/doc/xxhash-libs/README.md11,920
/usr/share/licenses/xxhash-libs0
/usr/share/licenses/xxhash-libs/LICENSE2,228
Component of
Page:
1 through 50 of 34083 >>>
Buildroot descending sort Created State
f32-build-27485887-3587690 2021-05-25 17:44:39 expired
f32-build-27485824-3587690 2021-05-25 17:43:04 expired
f32-build-27483971-3587690 2021-05-25 15:16:37 expired
f32-build-27482498-3587690 2021-05-25 13:01:26 expired
f32-build-27480030-3587690 2021-05-25 08:10:48 expired
f32-build-27480019-3587690 2021-05-25 08:09:25 expired
f32-build-27476550-3587690 2021-05-25 04:42:23 expired
f32-build-27473931-3587690 2021-05-25 01:50:10 expired
f32-build-27473701-3587690 2021-05-25 01:28:20 expired
f32-build-27473691-3587690 2021-05-25 01:27:03 expired
f32-build-27473379-3587538 2021-05-25 01:06:55 expired
f32-build-27473102-3586789 2021-05-25 00:36:02 expired
f32-build-27473096-3586789 2021-05-25 00:35:53 expired
f32-build-27472653-3586789 2021-05-24 23:52:38 expired
f32-build-27472230-3586091 2021-05-24 22:44:27 expired
f32-build-27472205-3586091 2021-05-24 22:43:02 expired
f32-build-27470077-3583686 2021-05-24 17:22:54 expired
f32-build-27470054-3583686 2021-05-24 17:21:26 expired
f32-build-27470052-3583686 2021-05-24 17:21:25 expired
f32-build-27470051-3583686 2021-05-24 17:21:24 expired
f32-build-27469842-3583686 2021-05-24 16:39:16 expired
f32-build-27469480-3578900 2021-05-24 16:06:40 expired
f32-build-27469407-3578900 2021-05-24 15:51:05 expired
f32-build-27468093-3578900 2021-05-24 13:51:11 expired
f32-build-27468070-3578900 2021-05-24 13:49:39 expired
f32-build-27467392-3578900 2021-05-24 13:01:14 expired
f32-build-27463052-3578115 2021-05-24 06:38:43 expired
f32-build-27462900-3578115 2021-05-24 06:16:40 expired
f32-build-27454086-3574131 2021-05-23 21:04:07 expired
f32-build-27453896-3574131 2021-05-23 20:41:37 expired
f32-build-27453887-3574131 2021-05-23 20:40:51 expired
f32-build-27453876-3574131 2021-05-23 20:40:28 expired
f32-build-27453873-3574131 2021-05-23 20:40:21 expired
f32-build-27453867-3574131 2021-05-23 20:39:34 expired
f32-build-27451177-3574131 2021-05-23 17:38:36 expired
f32-build-27451150-3574131 2021-05-23 17:37:06 expired
f32-build-27450280-3574131 2021-05-23 16:40:10 expired
f32-build-27449803-3574131 2021-05-23 16:12:07 expired
f32-build-27449446-3574131 2021-05-23 15:54:50 expired
f32-build-27449309-3574131 2021-05-23 15:49:00 expired
f32-build-27449270-3574131 2021-05-23 15:44:32 expired
f32-build-27449216-3574131 2021-05-23 15:42:01 expired
f32-build-27449177-3574131 2021-05-23 15:40:44 expired
f32-build-27448988-3574131 2021-05-23 15:30:10 expired
f32-build-27443323-3574131 2021-05-23 09:53:44 expired
f32-build-27436709-3574131 2021-05-23 02:43:50 expired
f32-build-27436507-3574131 2021-05-23 02:27:05 expired
f32-build-27436496-3574131 2021-05-23 02:26:30 expired
f32-build-27436377-3574131 2021-05-23 02:16:59 expired
f32-build-27432557-3569869 2021-05-22 22:07:48 expired